Location: Wanzleben
(52.0609°N, 11.4408°E)
Time: 02:14:54
(UTC+00:00)

COSMOS 2406 - Pass Details

Date: 21 January 2021
Orbit: 841 x 865 km, 71.0° (Epoch: 05 March)

Event Time Altitude Azimuth Distance (km) Brightness Sun altitude
Rises 18:56:15 0° 328° (NNW) 3,460 6.9 -29.3°
Reaches altitude 10° 18:58:44 10° 325° (NW) 2,519 6.1 -29.6°
Maximum altitude 19:04:29 67° 245° (WSW) 937 3.4 -30.5°
Enters shadow 19:04:33 67° 240° (WSW) 938 3.4 -30.5°
